Starlink 4185

operational
NORAD ID: 53139 Int'l Des: 2022-083 Owner: SPXS Country: US Constellation: starlink
LEOCIRCULAR

About Starlink 4185

Description loading...

Live Position

Loading 3D Globe...

Upcoming Passes

Altitude History

Altitude vs Time

uPlot chart will show altitude changes over time

Two-Line Element Set

1 53139U 22083H 25297.07292255 .00001059 00000-0 84600-4 0 9990
2 53139 53.2225 67.4139 0001329 70.2603 289.8532 15.08839821180590
Epoch: Oct 24, 2025 • Age: 20 hours

Current Status

Altitude 544.2 km
Velocity 7.60 km/s
Sub-Earth Point 46.77°N, 162.04°W
Launch Date Jul 17, 2022
Age 3.2 years
Type internet

Technical Details

Classification Payload
Mass 297.00 kg
Dry Mass 275.00 kg
Total Mass 297.00 kg
Length 0.20 m
Diameter 2.80 m
Span 9.00 m
Shape Box + pan
Manufacturer SPXS
Bus Type Starlink
Phase Status In Orbit
Owner/State SPXS/US

Large Constellations

Loading constellations...